Location: Unspecified
(43.8044°N, 11.0278°E)
Time: 08:34:43
(UTC+02:00)

Resurs 1-4 Rocket - Visible Passes

Search period start: 01 July 2015 00:00
Search period end: 11 July 2015 00:00
Orbit: 801 x 813 km, 98.4° (Epoch: 30 June)

Date Brightness Start Highest point End Pass type
(mag) Time Alt. Az. Time Alt. Az. Time Alt. Az.
01 Jul 2.6 04:34:02 10° NNE 04:39:18 62° E 04:44:32 10° S visible
02 Jul 3.4 04:09:48 10° NNE 04:14:42 37° E 04:19:36 10° SSE visible
03 Jul 4.1 03:45:51 10° NE 03:49:58 23° E 03:54:11 10° SE visible
04 Jul 4.6 03:22:35 10° ENE 03:25:07 14° E 03:27:56 10° ESE visible
04 Jul 2.2 05:00:24 10° N 05:05:43 78° WNW 05:11:00 10° SSW visible
05 Jul 2.5 04:35:56 10° NNE 04:41:13 65° E 04:46:28 10° S visible
06 Jul 3.3 04:11:41 10° NNE 04:16:37 39° E 04:21:33 10° SSE visible
07 Jul 4.1 03:47:42 10° NE 03:51:54 24° E 03:56:12 10° SSE visible
08 Jul 4.5 03:24:18 10° NE 03:27:03 15° E 03:30:03 10° ESE visible
08 Jul 2.2 05:02:19 10° N 05:07:37 74° WNW 05:12:53 10° SSW visible
09 Jul 2.4 04:37:50 10° NNE 04:43:08 68° ESE 04:48:23 10° S visible
10 Jul 3.2 04:13:33 10° NNE 04:18:32 41° E 04:23:31 10° SSE visible
